1513105200.84,12611,6.94,72842.5,-5.35,-6.77,-6.89,0,*57
1513105202.06,12612,6.94,72840.3,-5.39,-6.85,-6.93,0,*5E
1513105203.27,12613,6.94,72838.5,-5.39,-6.85,-6.93,0,*5F
1513105204.47,12614,6.94,72832.3,-5.35,-6.89,-6.89,0,*53
1513105205.69,12615,6.94,72832.5,-5.39,-6.93,-6.85,0,*59
1513105206.94,12616,6.94,72830.8,-5.39,-6.93,-6.93,0,*5D
1513105208.16,12617,6.94,72830.0,-5.39,-6.85,-6.93,0,*5B
1513105209.41,12618,6.94,72830.5,-5.39,-6.93,-6.97,0,*57
1513105210.65,12619,6.94,72832.3,-5.39,-6.97,-7.05,0,*58
1513105211.87,12620,6.94,72830.8,-5.39,-6.97,-7.11,0,*57
1513105213.15,12621,6.94,72824.5,-5.41,-7.01,-7.01,0,*56
1513105214.39,12622,6.94,72828.3,-5.39,-6.97,-6.97,0,*5A
1513105215.62,12623,6.94,72830.0,-5.35,-6.81,-6.93,0,*54
1513105216.86,12624,6.94,72836.5,-5.33,-6.81,-6.93,0,*55
1513105218.06,12625,6.94,72840.3,-5.35,-6.81,-6.89,0,*59
1513105219.25,12626,6.94,72842.5,-5.35,-6.89,-6.89,0,*52
1513105220.45,12627,6.94,72844.0,-5.35,-6.89,-6.89,0,*53
1513105221.69,12628,6.94,72846.5,-5.39,-6.97,-6.97,0,*50
1513105222.92,12629,6.94,72846.0,-5.39,-7.05,-7.11,0,*54
1513105224.12,12630,6.94,72848.8,-5.39,-7.11,-7.23,0,*58
1513105225.39,12631,6.94,72852.0,-5.41,-7.27,-7.27,0,*57
1513105226.6,12632,6.94,72848.3,-5.39,-7.15,-7.23,0,*5E
1513105227.82,12633,6.94,72844.8,-5.39,-7.23,-7.27,0,*5E
1513105229.04,12634,6.94,72848.5,-5.39,-7.23,-7.27,0,*59
1513105230.24,12635,6.94,72844.8,-5.39,-7.23,-7.23,0,*5C
1513105231.48,12636,6.94,72844.0,-5.39,-7.27,-7.35,0,*5C
1513105232.72,12637,6.94,72844.8,-5.39,-7.31,-7.35,0,*5A
1513105233.92,12638,6.94,72846.5,-5.39,-7.23,-7.23,0,*51
1513105235.2,12639,6.94,72844.0,-5.41,-7.27,-7.27,0,*5F
1513105236.43,12640,6.94,72844.3,-5.41,-7.15,-7.19,0,*5D
1513105237.68,12641,6.94,72846.0,-5.41,-7.15,-7.27,0,*51
1513105238.9,12642,6.94,72844.0,-5.39,-7.15,-7.27,0,*5D
1513105240.12,12643,6.94,72846.5,-5.39,-7.15,-7.27,0,*5C
1513105241.4,12644,6.94,72844.8,-5.41,-7.27,-7.39,0,*5A
1513105242.67,12645,6.94,72844.8,-5.41,-7.31,-7.39,0,*5C
1513105243.91,12646,6.94,72844.0,-5.39,-7.27,-7.27,0,*58
1513105245.15,12647,6.94,72844.5,-5.39,-7.27,-7.39,0,*56
1513105246.37,12648,6.94,72838.8,-5.39,-7.35,-7.49,0,*5D
1513105247.65,12649,6.94,72840.3,-5.41,-7.31,-7.43,0,*5D
1513105248.9,12650,6.94,72838.8,-5.39,-7.35,-7.35,0,*5F
1513105250.14,12651,7.0,72842.3,-5.39,-7.35,-7.39,0,*52
1513105251.41,12652,6.94,72836.3,-5.41,-7.31,-7.31,0,*52
1513105252.69,12653,6.94,72830.3,-5.41,-7.27,-7.27,0,*53
1513105253.89,12654,6.94,72828.3,-5.39,-7.19,-7.15,0,*57
1513105255.14,12655,6.94,72834.8,-5.41,-7.15,-7.01,0,*50
1513105256.35,12656,6.94,72828.3,-5.39,-7.11,-7.05,0,*5C
1513105257.59,12657,6.94,72832.8,-5.41,-7.11,-7.11,0,*57
1513105258.83,12658,6.94,72832.0,-5.39,-7.05,-7.05,0,*57
1513105260.08,12659,6.94,72834.0,-5.41,-7.11,-7.01,0,*58
1513105261.35,12660,6.94,72834.3,-5.41,-7.01,-7.01,0,*53
1513105262.63,12661,6.94,72836.0,-5.41,-7.01,-7.01,0,*52
1513105263.9,12662,6.94,72838.8,-5.41,-7.01,-7.01,0,*51
1513105265.15,12663,6.94,72838.5,-5.41,-7.01,-7.11,0,*51
1513105266.38,12664,6.94,72838.0,-5.39,-6.97,-7.11,0,*57
1513105267.61,12665,6.94,72836.8,-5.41,-7.15,-7.15,0,*56
1513105268.84,12666,6.94,72840.0,-5.41,-7.15,-7.19,0,*59
1513105270.04,12667,6.94,72842.8,-5.39,-7.11,-7.15,0,*5F
1513105271.29,12668,6.94,72838.0,-5.41,-7.01,-7.15,0,*5E
1513105272.53,12669,6.94,72836.8,-5.39,-7.05,-7.05,0,*55
1513105273.77,12670,6.94,72840.3,-5.39,-6.97,-6.97,0,*5D
1513105275.05,12671,6.94,72846.5,-5.41,-6.97,-7.01,0,*5D
1513105276.32,12672,6.94,72846.5,-5.41,-6.97,-7.01,0,*5E
1513105277.6,12673,6.94,72842.0,-5.41,-6.97,-7.01,0,*5F
1513105278.86,12674,6.94,72844.0,-5.41,-6.97,-7.11,0,*59
1513105280.08,12675,6.94,72846.8,-5.39,-7.01,-7.11,0,*59
1513105281.31,12676,6.94,72846.3,-5.39,-6.97,-7.11,0,*54
1513105282.56,12677,6.94,72852.5,-5.41,-7.01,-7.15,0,*50
1513105283.78,12678,6.94,72852.5,-5.39,-7.05,-7.15,0,*54
1513105284.98,12679,6.94,72838.5,-5.39,-7.15,-7.23,0,*51
1513105286.24,12680,6.94,72842.0,-5.41,-7.19,-7.27,0,*50
1513105287.49,12681,6.94,72844.0,-5.41,-7.15,-7.27,0,*5D
1513105288.72,12682,6.94,72844.8,-5.41,-7.19,-7.15,0,*53
1513105289.92,12683,6.94,72848.5,-5.39,-7.11,-7.15,0,*55
1513105291.15,12684,7.0,72854.0,-5.41,-7.15,-7.19,0,*55
1513105292.35,12685,6.94,72848.5,-5.39,-7.23,-7.23,0,*57
1513105293.55,12686,6.94,72854.8,-5.39,-7.11,-7.15,0,*50
1513105294.77,12687,6.94,72856.8,-5.39,-7.05,-7.15,0,*54
1513105296.0,12688,6.94,72856.0,-5.41,-7.15,-7.15,0,*55
1513105297.19,12689,6.94,72854.0,-5.39,-7.15,-7.15,0,*5B
1513105298.43,12690,6.94,72854.5,-5.35,-7.05,-7.05,0,*5F
1513105299.63,12691,6.94,72856.3,-5.39,-7.15,-7.15,0,*52
1513105300.86,12692,6.94,72854.3,-5.41,-7.19,-7.19,0,*5E
1513105302.06,12693,7.0,72852.3,-5.39,-7.15,-7.15,0,*50
1513105303.29,12694,6.94,72846.0,-5.41,-7.19,-7.19,0,*58
1513105304.52,12695,6.94,72848.0,-5.41,-7.15,-7.19,0,*55
1513105305.75,12696,6.94,72850.0,-5.41,-7.15,-7.15,0,*5A
1513105306.97,12697,6.94,72850.0,-5.41,-7.15,-7.15,0,*5B
1513105308.17,12698,6.94,72848.3,-5.39,-7.15,-7.15,0,*5B
1513105309.4,12699,6.94,72846.0,-5.41,-7.15,-7.19,0,*59
1513105310.63,12700,6.94,72852.3,-5.41,-7.19,-7.19,0,*54
1513105311.86,12701,7.0,72858.3,-5.41,-7.15,-7.15,0,*55
1513105313.06,12702,6.94,72852.8,-5.39,-7.11,-7.11,0,*59
1513105314.29,12703,6.94,72850.3,-5.41,-7.19,-7.15,0,*5B
1513105315.52,12704,7.0,72852.0,-5.41,-7.19,-7.15,0,*5C
1513105316.72,12705,6.94,72850.8,-5.39,-7.15,-7.15,0,*5E
1513105317.95,12706,7.0,72852.8,-5.41,-7.19,-7.15,0,*5E
1513105319.18,12707,7.0,72854.5,-5.41,-7.15,-7.11,0,*57
1513105320.41,12708,7.0,72852.8,-5.41,-7.15,-7.15,0,*5C
1513105321.62,12709,6.94,72852.5,-5.39,-7.15,-7.05,0,*53
1513105322.85,12710,6.94,72852.8,-5.41,-7.15,-7.11,0,*51
1513105324.08,12711,7.0,72854.3,-5.41,-7.15,-7.15,0,*54
1513105325.31,12712,7.0,72852.8,-5.41,-7.11,-7.15,0,*53
1513105326.54,12713,7.0,72852.0,-5.41,-7.19,-7.15,0,*5A
1513105327.75,12714,7.0,72848.0,-5.39,-7.11,-7.11,0,*5E
1513105328.97,12715,6.94,72848.3,-5.41,-7.15,-7.15,0,*50
1513105330.2,12716,6.94,72850.0,-5.41,-7.15,-7.15,0,*53
1513105331.44,12717,7.0,72854.0,-5.41,-7.11,-7.11,0,*52
1513105332.67,12718,7.0,72854.0,-5.41,-7.11,-7.11,0,*5D
1513105333.92,12719,7.0,72858.8,-5.41,-7.01,-7.15,0,*59
1513105335.15,12720,7.0,72848.3,-5.41,-7.11,-7.15,0,*52
1513105336.37,12721,6.94,72846.0,-5.39,-7.11,-7.05,0,*5D
1513105337.59,12722,6.94,72848.0,-5.39,-7.05,-7.11,0,*5E
1513105338.82,12723,7.0,72840.3,-5.41,-7.15,-7.19,0,*59
1513105340.03,12724,7.0,72848.3,-5.39,-7.11,-7.11,0,*5D
1513105341.25,12725,7.0,72848.5,-5.41,-7.15,-7.15,0,*53
1513105342.49,12726,6.94,72852.5,-5.41,-7.11,-7.11,0,*50
1513105343.72,12727,7.0,72852.8,-5.41,-7.15,-7.19,0,*5D
1513105344.94,12728,6.94,72846.5,-5.41,-7.15,-7.15,0,*5E
1513105346.17,12729,6.94,72844.8,-5.41,-7.15,-7.15,0,*5F
1513105347.43,12730,7.0,72844.5,-5.41,-7.01,-7.11,0,*56
1513105348.66,12731,6.94,72844.3,-5.41,-7.11,-7.11,0,*56
1513105349.89,12732,7.0,72844.3,-5.41,-7.11,-7.15,0,*51
1513105351.13,12733,6.94,72838.5,-5.41,-7.11,-7.11,0,*54
1513105352.36,12734,7.0,72842.3,-5.41,-7.15,-7.11,0,*57
1513105353.59,12735,7.0,72846.0,-5.41,-7.11,-7.19,0,*5A
1513105354.82,12736,6.94,72840.8,-5.41,-7.19,-7.15,0,*5D
1513105356.05,12737,6.94,72842.8,-5.41,-7.15,-7.15,0,*50
1513105357.3,12738,6.94,72844.8,-5.41,-7.15,-7.01,0,*5A
1513105358.57,12739,7.0,72850.3,-5.41,-7.01,-7.01,0,*5E
1513105359.82,12740,7.0,72850.5,-5.39,-6.97,-6.97,0,*5F
1513105361.09,12741,7.0,72850.0,-5.41,-7.01,-7.01,0,*51
1513105362.34,12742,6.94,72850.3,-5.39,-6.93,-6.97,0,*59
1513105363.61,12743,6.94,72846.0,-5.41,-7.01,-7.01,0,*53
1513105364.88,12744,6.94,72850.5,-5.41,-7.01,-7.01,0,*54
1513105366.14,12745,6.94,72850.5,-5.41,-7.01,-7.11,0,*54
1513105367.37,12746,6.94,72848.0,-5.41,-7.11,-7.11,0,*56
1513105368.65,12747,6.94,72852.3,-5.41,-7.01,-7.01,0,*57
1513105369.92,12748,6.94,72854.8,-5.41,-7.01,-7.01,0,*58
1513105371.19,12749,6.94,72852.8,-5.41,-7.01,-7.01,0,*59
1513105372.45,12750,7.0,72854.0,-5.41,-7.01,-7.11,0,*50
1513105373.72,12751,6.94,72852.8,-5.41,-7.01,-7.01,0,*50
1513105374.97,12752,7.0,72852.3,-5.41,-7.11,-7.01,0,*52
1513105376.25,12753,6.94,72852.3,-5.41,-6.97,-7.01,0,*5C
1513105377.5,12754,6.94,72850.0,-5.41,-7.01,-7.11,0,*54
1513105378.73,12755,7.0,72854.0,-5.39,-6.97,-7.11,0,*54
1513105380.0,12756,7.0,72856.0,-5.41,-7.01,-7.01,0,*57
1513105381.28,12757,7.0,72852.8,-5.41,-7.01,-7.01,0,*56
1513105382.53,12758,6.94,72846.8,-5.41,-7.01,-7.11,0,*58
1513105383.79,12759,7.0,72846.0,-5.41,-7.01,-7.11,0,*59
1513105385.02,12760,7.0,72844.5,-5.41,-7.11,-7.11,0,*52
1513105386.26,12761,6.94,72842.5,-5.41,-7.11,-7.11,0,*53
1513105387.48,12762,7.0,72840.3,-5.41,-7.15,-7.15,0,*50
1513105388.71,12763,7.0,72848.0,-5.41,-7.11,-7.19,0,*59
1513105389.93,12764,7.0,72848.0,-5.39,-7.05,-7.15,0,*58
1513105391.17,12765,7.0,72850.3,-5.41,-7.11,-7.11,0,*57
1513105392.42,12766,7.0,72854.8,-5.41,-7.01,-7.11,0,*55
1513105393.7,12767,7.0,72852.8,-5.41,-7.01,-7.01,0,*55
1513105394.94,12768,6.94,72850.8,-5.43,-7.01,-7.01,0,*58
1513105396.22,12769,6.94,72852.3,-5.41,-7.01,-7.01,0,*5B
1513105397.45,12770,6.94,72854.3,-5.41,-7.11,-7.11,0,*53
1513105398.72,12771,7.0,72856.3,-5.41,-7.01,-7.01,0,*52
1513105399.98,12772,6.94,72852.5,-5.41,-7.01,-7.15,0,*54
1513105401.21,12773,6.94,72850.8,-5.41,-7.11,-7.11,0,*50
1513105402.45,12774,7.0,72852.3,-5.39,-7.05,-7.05,0,*58
1513105403.65,12775,7.0,72848.0,-5.43,-7.11,-7.11,0,*54
1513105404.88,12776,6.94,72846.5,-5.43,-7.01,-7.11,0,*56
1513105406.14,12777,7.0,72850.5,-5.41,-7.01,-7.11,0,*55
1513105407.37,12778,7.0,72850.0,-5.41,-7.11,-7.11,0,*5B
1513105408.62,12779,7.0,72846.8,-5.41,-7.01,-7.11,0,*5B
1513105409.86,12780,7.0,72844.5,-5.41,-7.11,-7.11,0,*5C
1513105411.11,12781,6.94,72846.8,-5.41,-7.11,-7.01,0,*5C
1513105412.35,12782,7.0,72848.0,-5.41,-7.11,-7.11,0,*5E
1513105413.58,12783,7.0,72850.0,-5.41,-7.11,-7.15,0,*5B
1513105414.81,12784,7.0,72850.3,-5.41,-7.11,-7.11,0,*58
1513105416.02,12785,6.94,72850.0,-5.43,-7.11,-7.11,0,*5B
1513105417.22,12786,6.94,72848.0,-5.43,-7.15,-7.15,0,*58
1513105418.47,12787,7.0,72850.5,-5.43,-7.01,-7.01,0,*59
1513105419.69,12788,7.0,72854.8,-5.43,-7.11,-7.01,0,*57
1513105420.9,12789,7.0,72848.8,-5.43,-7.11,-7.11,0,*57
1513105422.13,12790,6.94,72850.0,-5.41,-7.15,-7.11,0,*59
1513105423.41,12791,6.94,72852.5,-5.41,-7.01,-7.01,0,*5C
1513105424.68,12792,7.0,72850.5,-5.41,-7.01,-7.01,0,*5F
1513105425.93,12793,6.94,72850.3,-5.41,-7.11,-7.01,0,*5F
1513105427.2,12794,6.94,72854.3,-5.41,-7.01,-7.01,0,*59
1513105428.48,12795,7.0,72856.3,-5.41,-7.01,-6.97,0,*56
1513105429.75,12796,6.94,72852.8,-5.41,-7.01,-7.01,0,*5B
1513105431.03,12797,7.0,72852.8,-5.41,-7.01,-7.01,0,*5A
1513105432.25,12798,7.0,72854.0,-5.43,-7.11,-7.01,0,*56
1513105433.52,12799,6.94,72848.5,-5.41,-7.01,-7.01,0,*54
1513105434.8,12800,6.94,72846.0,-5.41,-7.01,-7.01,0,*5B
1513105436.03,12801,7.0,72844.8,-5.43,-7.01,-7.11,0,*59
1513105437.27,12802,6.94,72840.0,-5.43,-7.01,-7.01,0,*5B
1513105438.5,12803,7.0,72838.0,-5.43,-7.11,-7.01,0,*5B
1513105439.72,12804,6.94,72834.3,-5.43,-7.11,-7.01,0,*5C
1513105440.96,12805,7.0,72830.8,-5.41,-7.11,-7.11,0,*5E
1513105442.17,12806,7.0,72828.5,-5.43,-7.11,-7.11,0,*5F
1513105443.41,12807,7.0,72832.3,-5.39,-7.05,-6.97,0,*59
1513105444.64,12808,7.0,72832.5,-5.41,-7.15,-7.11,0,*57
1513105445.9,12809,6.94,72832.5,-5.41,-7.19,-7.27,0,*5F
1513105447.1,12810,7.0,72836.3,-5.43,-7.19,-7.19,0,*58
1513105448.3,12811,6.94,72836.5,-5.43,-7.19,-7.19,0,*59
1513105449.5,12812,7.0,72838.3,-5.43,-7.15,-7.19,0,*56
1513105450.71,12813,6.94,72836.5,-5.43,-7.15,-7.19,0,*57
1513105451.91,12814,7.0,72836.3,-5.43,-7.15,-7.19,0,*50
1513105453.11,12815,7.0,72828.8,-5.43,-7.19,-7.15,0,*51
1513105454.34,12816,6.94,72830.8,-5.45,-7.15,-7.15,0,*58
1513105455.54,12817,7.0,72834.8,-5.43,-7.11,-7.11,0,*5F
1513105456.75,12818,7.0,72832.3,-5.43,-7.15,-7.15,0,*50
1513105457.95,12819,7.0,72836.5,-5.43,-7.11,-7.15,0,*55
1513105459.19,12820,6.94,72832.5,-5.45,-7.15,-7.05,0,*5C
1513105460.4,12821,6.94,72834.8,-5.43,-7.15,-7.11,0,*5E
1513105461.65,12822,6.94,72840.5,-5.45,-7.11,-7.05,0,*5A
1513105462.85,12823,7.0,72846.3,-5.43,-7.11,-7.11,0,*58
1513105464.08,12824,6.94,72842.0,-5.45,-7.15,-7.15,0,*59
1513105465.35,12825,7.0,72844.0,-5.45,-7.05,-7.05,0,*58
1513105466.57,12826,7.0,72844.5,-5.43,-7.11,-7.01,0,*5C
1513105467.85,12827,7.0,72846.0,-5.41,-7.01,-7.01,0,*5E
1513105469.08,12828,7.0,72844.0,-5.43,-7.01,-7.11,0,*52
1513105470.35,12829,6.94,72844.5,-5.45,-7.05,-7.01,0,*50
1513105471.59,12830,6.94,72842.5,-5.43,-7.01,-7.01,0,*5A
1513105472.84,12831,6.94,72844.0,-5.43,-6.97,-7.01,0,*55
1513105474.09,12832,7.0,72844.0,-5.43,-6.97,-7.01,0,*56
1513105475.36,12833,6.94,72844.8,-5.45,-7.05,-7.05,0,*5F
1513105476.61,12834,7.0,72846.5,-5.43,-7.01,-6.97,0,*50
1513105477.86,12835,6.94,72842.8,-5.43,-6.97,-6.97,0,*5F
1513105479.11,12836,7.0,72846.5,-5.43,-6.97,-6.97,0,*5C
1513105480.36,12837,7.0,72846.8,-5.43,-6.97,-6.97,0,*5D
1513105481.58,12838,7.0,72844.0,-5.43,-6.89,-6.97,0,*5D
1513105482.83,12839,6.94,72842.0,-5.43,-6.97,-6.97,0,*53
1513105484.08,12840,7.0,72844.5,-5.43,-6.97,-6.97,0,*5D
1513105485.33,12841,7.0,72842.8,-5.43,-6.97,-6.97,0,*5C
1513105486.58,12842,7.0,72842.8,-5.43,-6.97,-6.97,0,*5F
1513105487.83,12843,7.0,72846.8,-5.43,-6.97,-6.97,0,*5E
1513105489.08,12844,6.94,72844.5,-5.43,-6.97,-6.97,0,*59
1513105490.32,12845,7.0,72846.0,-5.43,-7.01,-6.97,0,*56
1513105491.57,12846,7.0,72846.8,-5.43,-7.01,-6.97,0,*55
1513105492.82,12847,6.94,72842.8,-5.43,-7.01,-6.97,0,*54
1513105494.09,12848,6.94,72844.5,-5.41,-6.97,-6.97,0,*57
1513105495.34,12849,6.94,72842.8,-5.43,-6.97,-6.97,0,*54
1513105496.62,12850,7.0,72844.3,-5.45,-7.01,-6.93,0,*50
1513105497.87,12851,7.0,72842.0,-5.43,-7.01,-6.97,0,*53
1513105499.11,12852,6.94,72838.3,-5.43,-6.97,-6.97,0,*5E
1513105500.36,12853,6.94,72832.8,-5.43,-6.97,-6.97,0,*5F
1513105501.61,12854,7.0,72838.3,-5.43,-6.97,-6.97,0,*58
1513105502.83,12855,7.0,72840.8,-5.43,-6.89,-6.97,0,*56
1513105504.11,12856,7.0,72842.5,-5.45,-6.93,-6.93,0,*5C
1513105505.31,12857,7.0,72836.8,-5.43,-6.89,-6.85,0,*57
1513105506.51,12858,6.94,72840.3,-5.43,-6.85,-6.89,0,*58
1513105507.7,12859,7.0,72840.3,-5.43,-6.85,-6.85,0,*55
1513105508.9,12860,6.94,72840.3,-5.43,-6.85,-6.85,0,*5F
1513105510.12,12861,6.94,72844.8,-5.45,-6.89,-6.89,0,*58
1513105511.32,12862,7.0,72846.0,-5.43,-6.85,-6.77,0,*50
1513105512.52,12863,7.0,72844.5,-5.43,-6.77,-6.85,0,*51
1513105513.72,12864,6.94,72836.3,-5.43,-6.77,-6.77,0,*5B
1513105514.92,12865,6.94,72836.5,-5.43,-6.77,-6.85,0,*57
1513105516.12,12866,7.0,72838.8,-5.43,-6.89,-6.89,0,*59
1513105517.32,12867,7.0,72842.5,-5.43,-6.89,-6.89,0,*58
1513105518.54,12868,7.0,72842.5,-5.43,-6.77,-6.97,0,*59
1513105519.76,12869,7.0,72846.0,-5.43,-6.85,-6.97,0,*55
1513105520.98,12870,6.94,72836.3,-5.43,-6.85,-6.97,0,*5D
1513105522.2,12871,7.0,72828.5,-5.43,-6.85,-6.97,0,*5C
1513105523.43,12872,7.0,72824.3,-5.43,-6.85,-6.97,0,*5F
1513105524.62,12873,7.0,72836.8,-5.43,-6.89,-6.89,0,*5D
1513105525.84,12874,7.0,72834.0,-5.43,-6.85,-6.97,0,*59
1513105527.09,12875,7.0,72828.8,-5.43,-6.97,-6.97,0,*5B
1513105528.34,12876,7.0,72828.5,-5.43,-6.97,-6.97,0,*58
1513105529.59,12877,7.0,72824.0,-5.43,-6.97,-6.97,0,*59
1513105530.87,12878,7.0,72826.5,-5.45,-7.01,-7.01,0,*50
1513105532.14,12879,7.0,72826.5,-5.45,-7.01,-7.01,0,*51
1513105533.39,12880,6.94,72824.8,-5.43,-6.97,-6.97,0,*51
1513105534.64,12881,7.0,72832.0,-5.43,-6.97,-6.97,0,*50
1513105535.89,12882,7.0,72830.8,-5.43,-6.97,-6.97,0,*53
1513105537.16,12883,7.0,72834.0,-5.45,-7.01,-7.05,0,*50
1513105538.41,12884,7.0,72828.5,-5.43,-6.97,-6.97,0,*55
1513105539.63,12885,6.94,72832.3,-5.43,-6.89,-6.97,0,*5B
1513105540.9,12886,7.0,72842.5,-5.45,-7.01,-6.93,0,*5B
1513105542.15,12887,7.0,72838.3,-5.43,-6.97,-6.97,0,*56
1513105543.4,12888,7.0,72836.8,-5.43,-6.97,-6.97,0,*59
1513105544.68,12889,7.0,72836.0,-5.45,-7.01,-6.93,0,*54
1513105545.87,12890,7.0,72840.8,-5.43,-6.89,-6.85,0,*5C
1513105547.15,12891,7.0,72842.3,-5.45,-6.93,-6.93,0,*57
1513105548.35,12892,7.0,72846.3,-5.43,-6.89,-6.89,0,*52
1513105549.55,12893,6.94,72840.3,-5.43,-6.85,-6.85,0,*53
1513105550.77,12894,7.0,72844.3,-5.45,-6.89,-6.89,0,*52
1513105552.02,12895,7.0,72846.5,-5.43,-6.97,-6.97,0,*55
1513105553.24,12896,6.94,72840.0,-5.43,-6.89,-6.97,0,*59
1513105554.49,12897,7.0,72840.0,-5.45,-6.93,-6.89,0,*5A
1513105555.75,12898,7.0,72840.3,-5.45,-7.01,-6.81,0,*57
1513105556.95,12899,7.0,72840.0,-5.43,-6.89,-6.85,0,*55
1513105558.14,12900,6.94,72842.3,-5.43,-6.85,-6.85,0,*58
1513105559.34,12901,6.94,72842.8,-5.43,-6.85,-6.77,0,*54
1513105560.54,12902,7.0,72844.5,-5.43,-6.85,-6.77,0,*57
1513105561.76,12903,7.0,72844.5,-5.45,-6.89,-6.89,0,*5D
1513105562.96,12904,7.0,72844.0,-5.43,-6.77,-6.77,0,*5C
1513105564.19,12905,6.94,72846.0,-5.45,-6.89,-6.81,0,*53
1513105565.39,12906,6.94,72844.5,-5.43,-6.77,-6.73,0,*5A
1513105566.59,12907,7.0,72846.5,-5.43,-6.77,-6.73,0,*5B
1513105567.79,12908,7.0,72850.5,-5.43,-6.85,-6.73,0,*59
1513105568.99,12909,6.94,72846.3,-5.43,-6.77,-6.73,0,*55
1513105570.18,12910,7.0,72848.5,-5.43,-6.85,-6.85,0,*59
1513105571.38,12911,7.0,72852.0,-5.43,-6.89,-6.77,0,*59
1513105572.58,12912,6.94,72848.0,-5.43,-6.85,-6.77,0,*56
1513105573.78,12913,7.0,72848.3,-5.43,-6.89,-6.85,0,*56
1513105575.03,12914,7.0,72844.8,-5.45,-6.93,-6.81,0,*58
1513105576.27,12915,7.0,72848.3,-5.45,-6.89,-6.81,0,*52
1513105577.46,12916,7.0,72844.5,-5.43,-6.89,-6.77,0,*5E
1513105578.66,12917,7.0,72842.8,-5.43,-6.89,-6.77,0,*5F
1513105579.88,12918,6.94,72840.8,-5.41,-6.85,-6.77,0,*5E
1513105581.08,12919,7.0,72844.8,-5.43,-6.85,-6.77,0,*5D
1513105582.28,12920,7.0,72842.5,-5.43,-6.77,-6.85,0,*57
1513105583.48,12921,7.0,72844.8,-5.43,-6.85,-6.85,0,*5B
1513105584.7,12922,7.0,72844.0,-5.43,-6.97,-6.85,0,*5B
1513105585.96,12923,7.0,72840.5,-5.45,-6.93,-6.89,0,*54
1513105587.15,12924,7.0,72842.8,-5.43,-6.89,-6.77,0,*5F
1513105588.35,12925,7.0,72842.3,-5.43,-6.85,-6.77,0,*52
1513105589.57,12926,7.0,72842.3,-5.45,-6.89,-6.77,0,*5B
1513105590.8,12927,7.0,72842.5,-5.43,-6.77,-6.63,0,*58
1513105592.0,12928,7.0,72844.3,-5.43,-6.77,-6.73,0,*56
1513105593.23,12929,6.94,72842.8,-5.45,-6.81,-6.69,0,*53
1513105594.43,12930,7.0,72848.8,-5.43,-6.77,-6.73,0,*5F
1513105595.62,12931,7.0,72848.3,-5.43,-6.77,-6.73,0,*5E
1513105596.85,12932,6.94,72848.8,-5.45,-6.89,-6.77,0,*5E
1513105598.05,12933,7.0,72850.8,-5.43,-6.85,-6.73,0,*51
1513105599.3,12934,7.0,72854.3,-5.41,-6.73,-6.63,0,*5C
1513105600.52,12935,7.0,72848.3,-5.45,-6.89,-6.77,0,*59
1513105601.72,12936,7.0,72846.5,-5.43,-6.77,-6.77,0,*5D
1513105602.95,12937,6.94,72842.5,-5.43,-6.77,-6.63,0,*59
1513105604.17,12938,7.0,72840.3,-5.43,-6.73,-6.63,0,*52
1513105605.39,12939,7.0,72846.3,-5.45,-6.77,-6.69,0,*5B
1513105606.64,12940,6.94,72846.8,-5.43,-6.63,-6.63,0,*5C
1513105607.88,12941,7.0,72852.5,-5.43,-6.63,-6.63,0,*5D
1513105609.12,12942,7.0,72848.8,-5.43,-6.63,-6.63,0,*5E
1513105610.34,12943,7.0,72848.0,-5.43,-6.63,-6.73,0,*5E
1513105611.56,12944,7.0,72850.0,-5.43,-6.63,-6.59,0,*51
1513105612.75,12945,7.0,72848.3,-5.43,-6.69,-6.69,0,*59
1513105613.99,12946,7.0,72848.3,-5.43,-6.63,-6.63,0,*5A
1513105615.24,12947,7.0,72848.5,-5.45,-6.63,-6.55,0,*58
1513105616.46,12948,7.0,72848.3,-5.43,-6.63,-6.59,0,*5D
1513105617.7,12949,6.94,72848.5,-5.43,-6.63,-6.63,0,*55
1513105618.9,12950,7.0,72848.0,-5.43,-6.73,-6.73,0,*5D
1513105620.11,12951,7.0,72848.5,-5.43,-6.63,-6.77,0,*59
1513105621.35,12952,7.0,72850.5,-5.45,-6.77,-6.81,0,*50
1513105622.55,12953,7.0,72848.0,-5.43,-6.85,-6.77,0,*53
1513105623.75,12954,6.94,72848.0,-5.43,-6.77,-6.77,0,*59
1513105624.96,12955,7.0,72852.5,-5.43,-6.63,-6.73,0,*59
1513105626.19,12956,7.0,72854.8,-5.45,-6.77,-6.77,0,*5D
1513105627.39,12957,7.0,72852.3,-5.43,-6.77,-6.85,0,*57
1513105628.61,12958,7.0,72848.5,-5.45,-6.89,-6.89,0,*53
1513105629.81,12959,7.0,72838.8,-5.43,-6.77,-6.85,0,*59
1513105631.01,12960,7.0,72840.8,-5.43,-6.85,-6.85,0,*5E
1513105632.21,12961,7.0,72836.8,-5.43,-6.85,-6.77,0,*52
1513105633.41,12962,7.0,72838.8,-5.43,-6.77,-6.85,0,*51
1513105634.63,12963,7.0,72834.0,-5.45,-6.89,-6.89,0,*5B
1513105635.88,12964,7.0,72836.5,-5.45,-6.93,-6.89,0,*57
1513105637.13,12965,7.0,72838.5,-5.45,-6.89,-7.01,0,*5C
1513105638.36,12966,7.0,72834.3,-5.43,-6.97,-6.89,0,*57
1513105639.56,12967,7.0,72828.8,-5.43,-6.89,-6.89,0,*59
1513105640.75,12968,7.0,72834.3,-5.43,-6.89,-6.89,0,*56
1513105642.03,12969,6.94,72828.8,-5.45,-7.01,-7.01,0,*51
1513105643.22,12970,7.0,72830.0,-5.43,-6.89,-6.89,0,*5F
1513105644.42,12971,7.0,72828.8,-5.43,-6.89,-6.89,0,*5E
1513105645.67,12972,6.94,72826.8,-5.45,-6.93,-6.89,0,*50
1513105646.92,12973,7.0,72828.3,-5.45,-7.01,-6.89,0,*5B
1513105648.12,12974,7.0,72828.5,-5.43,-6.85,-6.85,0,*5B
1513105649.38,12975,7.0,72832.5,-5.45,-6.93,-6.81,0,*5F
1513105650.61,12976,7.0,72836.3,-5.45,-6.81,-6.89,0,*57
1513105651.84,12977,6.94,72832.5,-5.45,-6.81,-6.81,0,*5E
1513105653.07,12978,7.0,72836.0,-5.45,-6.89,-6.89,0,*51
1513105654.27,12979,7.0,72836.3,-5.43,-6.77,-6.77,0,*56
1513105655.49,12980,7.0,72836.8,-5.45,-6.89,-6.89,0,*56
1513105656.69,12981,6.94,72834.8,-5.43,-6.77,-6.77,0,*51
1513105657.89,12982,7.0,72832.5,-5.43,-6.77,-6.77,0,*52
1513105659.13,12983,6.94,72836.3,-5.45,-6.81,-6.81,0,*55
1513105660.36,12984,7.0,72840.8,-5.45,-6.77,-6.81,0,*5B
1513105661.56,12985,6.94,72838.3,-5.43,-6.77,-6.77,0,*55
1513105662.79,12986,7.0,72844.8,-5.45,-6.77,-6.81,0,*59
1513105664.02,12987,7.0,72844.5,-5.45,-6.77,-6.77,0,*51
1513105665.22,12988,7.0,72840.8,-5.43,-6.77,-6.73,0,*5C
1513105666.45,12989,7.0,72844.3,-5.45,-6.81,-6.81,0,*5F
1513105667.68,12990,7.0,72838.8,-5.45,-6.89,-6.89,0,*57
1513105668.93,12991,7.0,72838.8,-5.45,-6.81,-6.93,0,*55
1513105670.13,12992,7.0,72840.3,-5.43,-6.85,-6.89,0,*5F
1513105671.41,12993,7.0,72840.0,-5.45,-6.93,-6.93,0,*54
1513105672.69,12994,7.0,72844.3,-5.45,-6.93,-6.93,0,*53
1513105673.96,12995,7.0,72848.3,-5.45,-6.93,-6.93,0,*52
1513105675.24,12996,7.0,72844.3,-5.45,-7.01,-6.93,0,*5B
1513105676.49,12997,7.0,72850.3,-5.45,-6.93,-6.89,0,*5B
1513105677.72,12998,7.0,72850.0,-5.45,-6.89,-6.89,0,*5F
1513105678.94,12999,7.0,72846.8,-5.45,-6.81,-6.89,0,*56
1513105680.2,13000,7.0,72844.3,-5.45,-6.93,-6.89,0,*5D
1513105681.45,13001,7.0,72848.0,-5.45,-6.89,-6.93,0,*5C
1513105682.67,13002,7.0,72850.3,-5.45,-6.89,-6.89,0,*54
1513105683.95,13003,7.0,72848.0,-5.45,-6.93,-6.93,0,*55
1513105685.2,13004,7.0,72844.8,-5.45,-6.93,-6.89,0,*59
1513105686.45,13005,7.0,72844.3,-5.43,-6.97,-6.97,0,*55
1513105687.73,13006,7.0,72842.3,-5.45,-6.93,-7.01,0,*5A
1513105688.95,13007,7.0,72844.0,-5.43,-6.97,-6.89,0,*58
1513105690.23,13008,7.0,72844.8,-5.45,-6.93,-6.93,0,*5E
1513105691.5,13009,7.0,72848.0,-5.45,-7.01,-6.93,0,*55
1513105692.76,13010,7.0,72846.8,-5.45,-6.93,-6.81,0,*54
1513105694.02,13011,7.0,72848.8,-5.45,-6.93,-6.89,0,*5D
1513105695.27,13012,7.0,72844.5,-5.45,-6.93,-6.89,0,*5E
1513105696.5,13013,7.0,72848.0,-5.45,-6.81,-6.81,0,*54
1513105697.74,13014,6.94,72842.8,-5.45,-6.81,-6.81,0,*53
1513105698.97,13015,7.0,72844.0,-5.45,-6.89,-6.81,0,*5A
1513105700.2,13016,7.0,72846.5,-5.45,-6.81,-6.81,0,*51
1513105701.43,13017,7.0,72850.8,-5.45,-6.81,-6.69,0,*56
1513105702.66,13018,7.0,72850.5,-5.45,-6.81,-6.77,0,*56
1513105703.88,13019,7.0,72846.5,-5.45,-6.81,-6.89,0,*56
1513105705.11,13020,7.0,72850.8,-5.45,-6.81,-6.89,0,*5C
1513105706.34,13021,7.0,72848.5,-5.45,-6.89,-6.81,0,*5D
1513105707.59,13022,7.0,72848.3,-5.45,-6.89,-6.93,0,*5D
1513105708.84,13023,7.0,72852.8,-5.45,-6.89,-6.93,0,*5C
1513105710.12,13024,7.0,72852.0,-5.45,-6.93,-6.93,0,*50
1513105711.39,13025,7.0,72848.8,-5.45,-7.01,-7.01,0,*51
1513105712.67,13026,7.0,72846.8,-5.45,-6.93,-7.01,0,*58
1513105713.95,13027,7.0,72848.0,-5.45,-6.93,-7.01,0,*59
1513105715.23,13028,7.0,72848.5,-5.45,-6.93,-7.01,0,*56
1513105716.47,13029,7.0,72856.5,-5.45,-6.89,-7.01,0,*5C
1513105717.74,13030,6.94,72850.8,-5.45,-7.01,-7.05,0,*51
1513105718.97,13031,7.0,72854.3,-5.43,-6.97,-7.11,0,*5D
1513105720.23,13032,7.0,72844.3,-5.45,-7.05,-7.23,0,*53
1513105721.46,13033,7.0,72844.5,-5.45,-7.15,-7.23,0,*53
1513105722.66,13034,7.0,72842.0,-5.43,-7.11,-7.19,0,*5F
1513105723.89,13035,7.0,72838.5,-5.45,-7.15,-7.23,0,*55